Theta_e
284 284 284 284 284 284 285 286 288 288 289 290 292 294 296 297 301 304 307 312 316 315
283 283 283 284 284 284 285 285 286 287 287 288 290 291 293 294 296 299 302 303 313 313
282 283 283 283 283 283 284 285 285 285 286 287 288 289 291 292 294 296 300 301 307 312
281 282 282 283 283 283 284 284 284 284 284 285 286 287 289 290 291 292 294 298 299 307
281 281 281 282 282 282 282 283 283 283 283 284 285 286 287 287 289 290 291 294 298 296
281 281 281 281 281 282 282 282 282 283 282 283 284 285 286 287 287 289 290 292 295 298
279 280 281 281 281 282 281 282 281 282 283 283 283 284 285 286 287 288 290 291 293 297
280 280 280 280 281 281 281 281 282 282 282 283 283 284 285 285 286 287 288 290 293 297
279 279 279 280 280 280 280 281 281 281 281 282 283 285 286 286 285 287 288 289 292 297
278 279 279 280 280 280 280 281 280 280 280 280 282 284 286 287 286 286 288 289 291 295
278 278 279 279 279 280 280 280 280 280 281 280 280 284 285 286 286 286 288 289 291 294
278 278 278 278 279 280 280 280 280 281 281 280 280 283 285 286 285 286 287 290 291 295
278 277 277 278 279 280 280 280 281 281 281 281 281 284 285 286 286 285 286 289 293 297
278 278 279 280 280 280 280 280 280 280 281 282 283 283 286 287 286 286 287 288 294 299
Wind_Speed
16 11 11 13 13 12 12 13 16 16 17 17 17 15 15 13 13 14 11 16 15 12
16 16 15 18 16 13 15 13 16 18 19 18 18 17 16 13 16 15 14 13 15 14
18 18 17 17 18 18 17 18 18 18 19 20 19 18 17 14 16 15 13 11 15 15
18 19 19 16 18 18 19 18 19 19 19 20 20 19 18 18 19 18 17 18 14 18
19 19 20 19 21 20 20 19 19 19 20 20 20 20 20 18 19 19 18 19 18 15
20 19 19 20 22 21 21 21 21 20 20 20 21 20 21 18 20 19 20 18 20 18
21 21 20 20 20 20 21 21 21 22 21 20 21 22 21 19 20 20 19 19 20 19
20 21 21 21 21 20 20 20 21 21 22 21 20 16 19 19 20 20 21 20 19 20
22 21 21 21 21 21 21 21 21 21 21 21 16 27 30 26 19 20 19 19 19 19
22 22 22 22 22 22 22 21 22 21 22 22 22 30 31 32 19 20 19 20 17 18
22 23 23 23 23 23 20 21 20 20 21 22 20 30 31 32 21 20 20 21 19 21
23 24 24 24 24 22 21 20 19 19 21 22 22 30 31 28 19 18 20 18 19 20
25 25 25 25 24 21 20 20 17 20 20 25 21 28 32 27 14 16 14 15 20 24
25 24 24 23 21 20 20 19 19 20 19 20 21 23 31 32 17 13 12 13 12 15
Wind_Direction
308 301 298 294 295 291 292 293 297 293 293 294 293 290 289 282 279 275 271 265 249 237
307 304 298 296 292 290 288 286 288 292 289 286 285 285 285 281 278 281 274 276 251 244
302 298 296 293 290 290 287 286 285 285 283 284 282 279 278 277 278 275 274 265 276 231
296 295 294 289 287 286 287 285 282 281 280 278 276 276 274 273 273 273 269 270 265 269
291 288 286 285 287 287 285 282 280 278 276 274 272 272 269 270 268 269 270 269 263 271
291 288 283 281 282 283 282 280 279 277 274 272 270 268 265 263 266 266 266 267 266 257
289 288 285 282 279 277 276 277 276 274 272 271 269 266 265 263 262 266 264 264 265 261
289 287 285 284 280 277 273 272 272 271 269 269 267 261 260 259 260 263 264 264 260 255
291 288 285 282 279 276 272 270 268 265 265 264 263 264 261 261 261 262 262 265 263 254
289 287 285 282 278 274 271 269 266 265 265 264 264 264 261 259 260 261 259 261 257 262
292 288 286 282 278 274 271 267 264 262 260 262 263 261 259 258 258 259 259 260 258 263
296 292 289 283 280 275 272 266 262 258 258 258 259 257 256 256 257 257 257 252 250 249
295 290 285 282 280 275 268 265 261 258 253 254 255 253 253 253 251 251 253 251 251 236
294 290 288 285 277 272 265 260 255 255 255 253 248 254 253 254 248 245 245 242 242 224